Hurghada, Egypt

12:41 PM EET on May 26, 2018 (GMT +0200)
Hurghada

Weather History for HEGN - June, 2012

Change the Weather History Date:

Wednesday, June 6, 2012

  Actual Average Record
Temperature  
Mean Temperature 83 °F -  
Max Temperature 93 °F 94 °F 107 °F (2016)
Min Temperature 73 °F 78 °F 73 °F (2004)
Cooling Degree Days 18    
Growing Degree Days 33 (Base 50)    
Moisture  
Dew Point 49 °F    
Average Humidity 27    
Maximum Humidity 36    
Minimum Humidity 15    
Precipitation  
Precipitation 0.00 in - - ()
Sea Level Pressure  
Sea Level Pressure 29.75 in    
Wind  
Wind Speed 15 mph ()    
Max Wind Speed 25 mph    
Max Gust Speed -    
Visibility 6.0 miles    
Events      
Averages and records for this station are not official NWS values.
T = Trace of Precipitation, MM = Missing Value Source: Averaged Metar Reports

Daily Weather History Graph

Daily Weather History Graph

Search for Another Location

Airport or City:

Astronomy

Jun. 06, 2012 Rise Set
Actual Time 4:50 AM EET 6:37 PM EET
Civil Twilight 4:23 AM EET 7:03 PM EET
Nautical Twilight 3:52 AM EET 7:35 PM EET
Astronomical Twilight 3:18 AM EET 8:08 PM EET
Moon 8:41 PM EET (6/6) 6:43 AM EET (6/6)
Length of Visible Light 14h 40m
Length of Day
13h 47m
Waning Gibbous, 94% of the Moon is Illuminated
Jun 6
Waning Gibbous
Jun 11
Last Quarter
Jun 19
New
Jun 27
First Quarter
Jul 3
Full

Hourly Weather History & Observations

Time (EET) Temp. Heat Index Dew Point Humidity Pressure Visibility Wind Dir Wind Speed Gust Speed Precip Events Conditions
12:00 AM 80.6 °F - 46.4 °F 30% 29.77 in - WNW 18.4 mph - N/A   Clear
1:00 AM 80.6 °F - 48.2 °F 32% 29.77 in - WNW 18.4 mph - N/A   Clear
2:00 AM 80 °F - 46 °F 20% 29.77 in 6 mi NNW 17.3 mph - -  
2:00 AM 80.6 °F - 46.4 °F 30% 29.77 in - NNW 17.3 mph - N/A   Clear
3:00 AM 77.0 °F - 46.4 °F 34% 29.77 in - NW 13.8 mph - N/A   Clear
4:00 AM 78.8 °F - 39.2 °F 24% 29.77 in - NNW 9.2 mph - N/A   Clear
5:00 AM 73.4 °F - 37.4 °F 27% 29.77 in - NW 3.5 mph - N/A   Clear
6:00 AM 77.0 °F - 35.6 °F 22% 29.77 in - NW 8.1 mph - N/A   Clear
7:00 AM 80.6 °F - 46.4 °F 30% 29.80 in - NNW 6.9 mph - N/A   Clear
8:00 AM 84 °F - 49 °F 20% 29.80 in 6 mi North 17.3 mph - -  
8:00 AM 84.2 °F - 50.0 °F 30% 29.80 in - North 17.3 mph - N/A   Clear
9:00 AM 86.0 °F - 50.0 °F 29% 29.80 in - North 23.0 mph - N/A   Clear
10:00 AM 87.8 °F 85.7 °F 53.6 °F 31% 29.80 in - North 20.7 mph - N/A   Clear
11:00 AM 89.6 °F 88.1 °F 57.2 °F 33% 29.77 in - North 25.3 mph - N/A   Clear
12:00 PM 91.4 °F 89.1 °F 53.6 °F 28% 29.77 in - North 25.3 mph - N/A   Clear
1:00 PM 91.4 °F - 50.0 °F 24% 29.74 in - North 25.3 mph - N/A   Clear
2:00 PM 92 °F - 51 °F 15% 29.73 in 6 mi North 20.7 mph - -  
2:00 PM 93.2 °F - 50.0 °F 23% 29.71 in - North 20.7 mph - N/A   Clear
3:00 PM 93.2 °F - 48.2 °F 21% 29.71 in - North 25.3 mph - N/A   Clear
4:00 PM 93.2 °F 90.8 °F 53.6 °F 26% 29.68 in - North 25.3 mph - N/A   Clear
5:00 PM 91.4 °F 89.9 °F 57.2 °F 31% 29.68 in - North 21.9 mph - N/A   Clear
6:00 PM 89.6 °F 88.9 °F 59.0 °F 36% 29.68 in - North 17.3 mph - N/A   Clear
7:00 PM 89.6 °F 87.7 °F 55.4 °F 31% 29.68 in - NNW 19.6 mph - N/A   Clear
8:00 PM 89.6 °F - 50.0 °F 26% 29.71 in - NNW 18.4 mph - N/A   Clear
9:00 PM 87.8 °F - 46.4 °F 24% 29.71 in - NW 13.8 mph - N/A   Clear
10:00 PM 86.0 °F - 48.2 °F 27% 29.71 in - WNW 15.0 mph - N/A   Clear
11:00 PM 86.0 °F - 42.8 °F 22% 29.71 in - WNW 17.3 mph - N/A   Clear